TimePDT,TemperatureF,Dew PointF,Humidity,Sea Level PressureIn,VisibilityMPH,Wind Direction,Wind SpeedMPH,Gust SpeedMPH,PrecipitationIn,Events,Conditions,WindDirDegrees,DateUTC
12:56 AM,48.0,37.9,68,29.97,10.0,Calm,Calm,-,N/A,,Clear,0,2013-10-07 07:56:00
1:56 AM,46.9,37.0,68,29.97,10.0,SE,3.5,-,N/A,,Clear,140,2013-10-07 08:56:00
2:56 AM,46.9,39.0,74,29.95,10.0,NW,3.5,-,N/A,,Clear,320,2013-10-07 09:56:00
3:56 AM,46.0,39.0,76,29.95,10.0,Calm,Calm,-,N/A,,Clear,0,2013-10-07 10:56:00
4:56 AM,42.1,36.0,79,29.96,10.0,Calm,Calm,-,N/A,,Clear,0,2013-10-07 11:56:00
5:56 AM,43.0,37.0,80,29.95,10.0,Calm,Calm,-,N/A,,Clear,0,2013-10-07 12:56:00
6:56 AM,42.1,36.0,79,29.94,10.0,SE,4.6,-,N/A,,Clear,130,2013-10-07 13:56:00
7:56 AM,46.9,39.9,77,29.94,7.0,East,4.6,-,N/A,,Clear,80,2013-10-07 14:56:00
8:56 AM,46.9,41.0,80,29.95,9.0,Calm,Calm,-,N/A,,Clear,0,2013-10-07 15:56:00
9:56 AM,48.9,42.1,77,29.96,8.0,Calm,Calm,-,N/A,,Partly Cloudy,0,2013-10-07 16:56:00
10:56 AM,53.1,42.1,66,29.94,9.0,ENE,4.6,-,N/A,,Mostly Cloudy,60,2013-10-07 17:56:00
11:56 AM,52.0,42.1,69,29.93,7.0,North,3.5,-,N/A,,Overcast,350,2013-10-07 18:56:00
12:56 PM,57.0,42.1,57,29.92,8.0,Calm,Calm,-,N/A,,Partly Cloudy,0,2013-10-07 19:56:00
1:56 PM,60.1,43.0,53,29.89,9.0,Calm,Calm,-,N/A,,Mostly Cloudy,0,2013-10-07 20:56:00
2:56 PM,62.1,41.0,46,29.89,10.0,Calm,Calm,-,N/A,,Mostly Cloudy,0,2013-10-07 21:56:00
3:56 PM,63.0,37.9,40,29.88,2.5,West,19.6,29.9,N/A,,Haze,280,2013-10-07 22:56:00
4:13 PM,62.6,37.4,39,29.88,3.0,WNW,16.1,23.0,N/A,,Haze,290,2013-10-07 23:13:00
4:56 PM,61.0,34.0,36,29.90,10.0,West,21.9,36.8,N/A,,Overcast,280,2013-10-07 23:56:00
5:56 PM,60.1,35.1,39,29.92,10.0,WSW,16.1,23.0,N/A,,Mostly Cloudy,250,2013-10-08 00:56:00
6:56 PM,57.0,35.1,44,29.95,7.0,WNW,5.8,-,N/A,,Overcast,290,2013-10-08 01:56:00
7:56 PM,55.0,36.0,49,29.96,10.0,West,9.2,-,N/A,,Clear,260,2013-10-08 02:56:00
8:56 PM,54.0,34.0,47,29.96,7.0,West,6.9,-,N/A,,Scattered Clouds,280,2013-10-08 03:56:00
9:56 PM,53.1,34.0,48,29.97,10.0,WSW,6.9,-,N/A,,Clear,240,2013-10-08 04:56:00
10:56 PM,51.1,34.0,52,29.97,10.0,SSW,3.5,-,N/A,,Clear,200,2013-10-08 05:56:00
11:56 PM,53.1,34.0,48,29.97,10.0,Calm,Calm,-,N/A,,Clear,0,2013-10-08 06:56:00